Brisbane, Queensland

5:08 AM AEST on October 01, 2016 (GMT +1000)
Brisbane

Weather History for 94578 - June, 2013

Change the Weather History Date:

Sunday, June 2, 2013

  Actual Average Record
Temperature  
Mean Temperature 66 °F -  
Max Temperature 77 °F - - ()
Min Temperature 55 °F - - ()
Cooling Degree Days 1    
Growing Degree Days 16 (Base 50)    
Moisture  
Dew Point 57 °F    
Average Humidity 76    
Maximum Humidity 94    
Minimum Humidity 47    
Precipitation  
Precipitation 0.01 in - - ()
Sea Level Pressure  
Sea Level Pressure 29.90 in    
Wind  
Wind Speed 7 mph ()    
Max Wind Speed 22 mph    
Max Gust Speed 31 mph    
Visibility 9.3 miles    
Events Rain    
T = Trace of Precipitation, MM = Missing Value Source: Averaged Metar Reports

Daily Weather History Graph

Daily Weather History Graph

Search for Another Location

Airport or City:

Trip Planner

Search our weather history database for the weather conditions in past years. The results will help you decide how hot, cold, wet, or windy it might be!

Date:

Astronomy

Jun. 02, 2013 Rise Set
Actual Time 6:30 AM AEST 5:00 PM AEST
Civil Twilight 6:04 AM AEST 5:26 PM AEST
Nautical Twilight 5:35 AM AEST 5:54 PM AEST
Astronomical Twilight 5:07 AM AEST 6:23 PM AEST
Moon 12:29 AM AEST (6/2) 12:44 PM AEST (6/2)
Length of Visible Light 11h 21m
Length of Day
10h 30m
Last Quarter, 37% of the Moon is Illuminated
Jun 2
Last Quarter
Jun 9
New
Jun 17
First Quarter
Jun 23
Full
Jun 30
Last Quarter

Hourly Weather History & Observations

Time (AEST) Temp. Dew Point Humidity Pressure Visibility Wind Dir Wind Speed Gust Speed Precip Events Conditions
12:00 AM 63 °F 59 °F 84% 30.06 in 16 mi WSW 5.8 mph - -   Partly Cloudy
12:00 AM 62.6 °F 59.0 °F 88% 30.04 in - WSW 5.8 mph - N/A   Clear
12:30 AM 62.6 °F 59.0 °F 88% 30.04 in - Calm Calm - N/A   Clear
1:00 AM 63 °F 59 °F 84% 30.03 in - Calm Calm - -  
1:00 AM 62.6 °F 59.0 °F 88% 30.01 in - Calm Calm - N/A   Clear
1:30 AM 62.6 °F 59.0 °F 88% 30.01 in - Calm Calm - N/A   Clear
2:00 AM 62.6 °F 59.0 °F 88% 30.01 in - NNW 2.3 mph - N/A   Clear
2:30 AM 62.6 °F 59.0 °F 88% 29.98 in - Calm Calm - N/A   Clear
3:00 AM 61 °F 57 °F 83% 29.98 in 16 mi NNE 5.8 mph - -   Partly Cloudy
3:00 AM 60.8 °F 57.2 °F 88% 29.98 in - NNE 5.8 mph - N/A   Clear
3:30 AM 59.0 °F 57.2 °F 94% 29.95 in - Calm Calm - N/A   Clear
4:00 AM 61 °F 56 °F 80% 29.97 in - West 4.6 mph - -  
4:00 AM 60.8 °F 57.2 °F 88% 29.95 in - West 4.6 mph - N/A   Clear
4:30 AM 60.8 °F 57.2 °F 88% 29.95 in - West 4.6 mph - N/A   Clear
5:00 AM 60.8 °F 57.2 °F 88% 29.95 in - West 1.2 mph - N/A   Clear
5:30 AM 60.8 °F 57.2 °F 88% 29.95 in - WSW 4.6 mph - N/A   Clear
6:00 AM 60 °F 58 °F 90% 29.96 in 16 mi NNW 4.6 mph - -   Partly Cloudy
6:00 AM 60.8 °F 57.2 °F 88% 29.95 in - NNW 4.6 mph - N/A   Clear
6:30 AM 60.8 °F 57.2 °F 88% 29.95 in - North 5.8 mph - N/A   Clear
7:00 AM 61 °F 58 °F 87% 29.97 in - NW 4.6 mph - -  
7:00 AM 60.8 °F 59.0 °F 94% 29.95 in - NW 4.6 mph - N/A   Clear
7:30 AM 62.6 °F 60.8 °F 94% 29.95 in 6.2 mi NNW 5.8 mph - N/A   Mostly Cloudy
8:00 AM 64.4 °F 59.0 °F 83% 29.95 in 6.2 mi NNW 10.4 mph - N/A   Mostly Cloudy
8:30 AM 66.2 °F 59.0 °F 78% 29.95 in 6.2 mi NNW 9.2 mph - N/A   Mostly Cloudy
9:00 AM 68 °F 59 °F 67% 29.95 in 16 mi North 9.2 mph - -   Partly Cloudy
9:00 AM 68.0 °F 59.0 °F 73% 29.95 in - North 9.2 mph - N/A   Clear
9:30 AM 68.0 °F 59.0 °F 73% 29.92 in - North 11.5 mph - N/A   Clear
10:00 AM 69 °F 58 °F 61% 29.93 in - North 11.5 mph - -  
10:00 AM 68.0 °F 59.0 °F 73% 29.92 in - North 11.5 mph - N/A   Clear
10:30 AM 69.8 °F 60.8 °F 73% 29.89 in - NNE 9.2 mph - N/A   Clear
11:00 AM 69.8 °F 60.8 °F 73% 29.89 in 6.2 mi North 12.7 mph - N/A   Mostly Cloudy
11:30 AM 71.6 °F 60.8 °F 69% 29.86 in 6.2 mi North 11.5 mph - N/A   Mostly Cloudy
12:00 PM 74 °F 60 °F 53% 29.84 in 16 mi North 13.8 mph - -   Partly Cloudy
12:00 PM 73.4 °F 60.8 °F 65% 29.83 in 6.2 mi North 13.8 mph - N/A   Mostly Cloudy
12:30 PM 73.4 °F 60.8 °F 65% 29.80 in 6.2 mi North 12.7 mph - N/A   Mostly Cloudy
1:00 PM 75 °F 59 °F 47% 29.79 in - NNW 17.3 mph - -  
1:00 PM 75.2 °F 59.0 °F 57% 29.77 in 6.2 mi NNW 17.3 mph - N/A   Mostly Cloudy
1:30 PM 75.2 °F 59.0 °F 57% 29.77 in 6.2 mi North 15.0 mph - N/A   Mostly Cloudy
2:00 PM 77.0 °F 59.0 °F 54% 29.74 in 6.2 mi North 15.0 mph - N/A   Mostly Cloudy
2:20 PM 68.0 °F 64.4 °F 88% 29.77 in 5.6 mi West 17.3 mph 31.1 mph N/A Rain Light Rain Showers
2:30 PM 68.0 °F 64.4 °F 88% 29.77 in 6.2 mi West 12.7 mph - N/A   Mostly Cloudy
3:00 PM 69 °F 63 °F 76% 29.80 in 16 mi West 9.2 mph - - Rain Light Rain Showers
3:00 PM 68.0 °F 62.6 °F 83% 29.77 in 6.2 mi WSW 9.2 mph - N/A   Mostly Cloudy
3:15 PM 68.0 °F 59.0 °F 73% 29.80 in 6.2 mi WSW 21.9 mph - N/A Rain Light Rain Showers
3:30 PM 68.0 °F 57.2 °F 68% 29.80 in 6.2 mi WSW 17.3 mph - N/A   Mostly Cloudy
4:00 PM 65 °F 57 °F 68% 29.83 in - WSW 13.8 mph - -  
4:00 PM 66.2 °F 57.2 °F 73% 29.83 in 6.2 mi WSW 13.8 mph - N/A   Mostly Cloudy
4:30 PM 64.4 °F 53.6 °F 68% 29.83 in 6.2 mi West 11.5 mph - N/A   Mostly Cloudy
5:00 PM 64.4 °F 51.8 °F 64% 29.83 in 6.2 mi WSW 10.4 mph - N/A   Mostly Cloudy
5:30 PM 62.6 °F 53.6 °F 72% 29.83 in 6.2 mi West 11.5 mph - N/A   Mostly Cloudy
6:00 PM 63 °F 52 °F 58% 29.85 in 19 mi West 12.7 mph - -   Partly Cloudy
6:00 PM 62.6 °F 51.8 °F 68% 29.83 in - West 12.7 mph - N/A   Clear
6:30 PM 60.8 °F 50.0 °F 68% 29.86 in - West 15.0 mph - N/A   Clear
7:00 PM 60 °F 50 °F 62% 29.89 in - WSW 16.1 mph - -  
7:00 PM 60.8 °F 50.0 °F 68% 29.89 in - WSW 16.1 mph - N/A   Clear
7:30 PM 59.0 °F 50.0 °F 72% 29.89 in - WSW 9.2 mph - N/A   Clear
8:00 PM 59.0 °F 50.0 °F 72% 29.89 in - West 17.3 mph - N/A   Clear
8:30 PM 59.0 °F 51.8 °F 77% 29.89 in - West 10.4 mph - N/A   Clear
9:00 PM 59 °F 51 °F 66% 29.89 in 19 mi West 17.3 mph - -   Partly Cloudy
9:00 PM 59.0 °F 50.0 °F 72% 29.89 in - West 17.3 mph - N/A   Clear
9:30 PM 59.0 °F 51.8 °F 77% 29.89 in - WSW 11.5 mph - N/A   Clear
10:00 PM 57 °F 51 °F 73% 29.89 in - NW 4.6 mph - -  
10:00 PM 57.2 °F 50.0 °F 77% 29.89 in - NW 4.6 mph - N/A   Clear
10:30 PM 57.2 °F 51.8 °F 82% 29.89 in - NW 5.8 mph - N/A   Clear
11:00 PM 55.4 °F 50.0 °F 82% 29.89 in - West 5.8 mph - N/A   Clear
11:30 PM 57.2 °F 51.8 °F 82% 29.89 in - North 3.5 mph - N/A   Clear